User: anonymous
Location: Ostrava
(49.8330°N, 18.2830°E)
Time: 05:58:20
(UTC+02:00)
Language:

Cosmos 1766 - Orbit

View from above orbital plane
View from above orbital plane
View from above satellite
View from above satellite

Ground track
Ground track

The orbit data is extracted from the following two-line orbital elements,

1 16881U 86055A   14114.07909371  .00005646  00000-0  39247-3 0  8465
2 16881 082.5118 065.5264 0013771 048.1006 312.1393 15.05266494508060
Epoch (UTC): 24 April 2014 01:53:53
Eccentricity: 0.0013771
inclination: 82.5118°
perigee height: 541 km
apogee height: 560 km
right ascension of ascending node: 65.5264°
argument of perigee: 48.1006°
revolutions per day: 15.05266494
mean anomaly at epoch: 312.1393°
orbit number at epoch: 50806

The dashed part of the orbit path shows where the satellite is in the earth's shadow,  

DLR